Wind_Speed
23 24 24 24 23 22 21 20 19 18 18 18 17 17 16 15 15 15 14 14 13 13 13 13 13 13 14 15 15 16 16 17 18 19 19 20 20 20 20 21 22 23 23 23
23 24 25 24 24 23 23 21 20 19 19 18 18 17 16 16 16 15 14 14 13 13 14 14 14 15 15 15 16 17 17 19 20 20 21 22 22 21 21 22 23 23 23 24
22 23 24 24 23 22 22 22 21 20 19 19 18 18 18 17 16 15 15 14 14 15 15 15 15 15 16 16 17 17 18 19 20 21 21 22 22 22 22 23 23 23 24 24
22 23 24 23 22 22 21 20 20 20 20 19 18 19 19 18 17 16 16 16 15 15 15 16 16 16 17 18 18 19 19 20 21 22 22 22 22 23 23 24 24 25 25 25
22 22 23 23 22 21 20 19 19 20 19 18 18 18 18 17 17 16 16 15 15 15 16 17 18 18 18 19 20 20 21 22 22 23 23 23 24 25 25 25 25 25 25 26
23 22 22 23 22 21 20 20 20 19 19 18 17 17 17 16 16 17 17 17 17 17 18 18 18 18 19 19 20 21 21 22 23 24 24 25 25 25 25 25 26 26 27 27
24 24 24 24 23 22 21 21 20 19 18 18 18 18 18 17 17 17 18 19 19 19 19 19 20 20 20 20 21 22 22 23 24 24 25 26 25 25 26 26 26 27 28 29
26 25 25 24 23 23 23 22 21 21 20 20 19 19 19 18 19 19 20 20 20 20 20 21 21 21 21 22 22 23 23 24 24 24 25 26 26 25 26 27 27 28 30 30
25 26 25 24 24 24 24 23 23 23 23 22 21 21 20 20 21 20 20 21 21 21 22 22 22 22 22 23 23 24 24 24 25 25 26 26 26 26 27 28 28 29 30 30
27 27 27 26 26 26 26 25 24 24 24 23 23 23 22 22 21 21 21 21 22 22 22 22 22 23 23 24 24 24 24 24 25 25 26 26 26 27 27 28 28 29 29 30
27 27 27 27 26 26 25 25 25 25 25 24 24 24 23 22 21 22 22 23 23 23 23 23 23 24 24 24 24 24 24 24 25 25 26 26 27 27 28 28 28 29 30 30
27 26 26 27 27 27 26 26 26 25 25 24 24 24 24 23 23 23 23 23 23 23 23 24 24 23 23 23 23 23 24 25 25 26 26 27 27 27 28 28 29 29 29 29
28 28 28 27 27 26 26 26 26 25 25 25 24 24 24 23 23 24 24 24 23 23 23 23 23 23 23 23 23 23 24 25 26 26 27 26 27 27 28 28 28 28 29 29
28 28 28 28 28 28 27 27 27 26 26 25 25 25 25 24 24 24 24 24 23 23 23 24 24 24 25 24 23 24 25 25 25 26 26 26 26 27 28 28 29 28 29 29
28 28 28 28 27 27 27 27 27 27 27 27 26 25 25 25 25 24 23 23 23 23 23 24 24 24 24 23 23 24 24 24 25 26 26 26 26 27 27 28 28 29 29 29
28 28 28 28 27 27 27 27 27 27 26 26 25 25 26 25 24 24 24 24 24 24 24 24 24 23 24 23 24 24 25 25 25 25 25 26 26 26 26 27 28 28 29 28
27 28 28 28 28 27 27 27 26 26 26 26 26 25 25 25 24 24 25 25 25 25 24 24 24 24 24 24 24 24 25 25 25 25 25 26 26 26 27 28 28 29 28 28
27 27 27 27 26 26 27 27 26 26 26 26 25 25 25 25 24 24 24 25 25 24 24 24 24 24 24 23 23 23 25 25 25 25 25 25 26 27 27 28 28 28 28 28
26 25 26 26 26 26 26 26 26 26 26 25 25 24 24 24 24 24 24 24 23 23 24 24 24 24 23 23 23 23 24 24 24 24 25 25 26 27 27 27 27 27 27 28
24 25 24 24 25 25 25 25 25 25 26 26 25 25 24 24 24 24 23 23 22 22 22 22 22 22 23 23 23 24 24 23 24 24 24 25 25 26 26 27 27 27 27 27
22 23 24 24 24 24 24 24 24 25 25 25 25 25 25 25 23 22 22 22 22 22 22 22 22 22 22 22 23 23 23 22 22 22 23 24 24 25 26 26 26 27 27 27
20 21 21 22 22 22 22 22 23 23 24 24 25 25 24 24 22 22 21 22 22 22 22 22 22 22 22 22 22 22 22 22 22 22 23 23 24 25 25 26 26 26 26 27
18 19 19 19 20 20 20 21 21 21 22 23 24 23 23 22 22 22 22 22 21 21 22 21 21 21 21 21 21 22 22 22 22 22 23 24 24 25 25 26 26 26 26 27
17 17 18 18 18 18 19 20 20 20 21 21 22 22 22 23 22 23 23 22 22 21 22 21 22 22 21 21 21 21 21 22 23 23 24 24 25 25 26 26 26 26 26 27
17 17 17 17 17 18 18 19 19 19 20 21 21 21 22 22 22 22 22 21 21 21 21 21 22 22 22 21 21 21 22 23 23 24 25 25 25 25 26 25 26 26 26 26
16 16 17 17 17 17 17 17 18 19 20 20 21 21 21 21 21 21 21 21 21 21 21 22 22 22 22 22 22 22 23 23 24 25 24 24 24 24 25 25 25 26 26 25
14 15 16 16 17 17 17 17 17 18 18 19 19 19 19 20 21 21 21 21 21 21 22 22 22 22 22 23 23 23 24 24 25 24 24 24 24 23 24 24 25 25 25 25
Wind_Direction
243 244 247 249 249 248 249 253 255 256 260 264 267 268 270 272 273 273 273 276 277 277 276 281 284 286 287 288 289 291 293 294 298 300 302 304 305 309 311 312 312 314 315 315
246 247 249 249 249 249 252 254 255 255 256 260 262 265 269 268 270 269 270 275 276 278 278 279 282 286 289 290 290 289 290 294 300 301 302 303 303 306 311 313 313 315 316 315
248 248 249 250 249 250 251 252 252 252 254 256 257 263 266 266 265 266 268 271 275 277 277 278 281 284 286 285 288 290 291 295 299 302 302 303 306 309 312 314 314 315 314 314
248 248 248 249 247 248 250 251 250 251 251 253 256 260 262 264 264 263 264 269 272 273 275 277 281 283 284 284 286 289 291 292 295 297 299 302 306 309 312 313 313 313 314 314
244 247 249 249 247 246 246 247 247 249 251 253 258 262 264 263 263 262 262 266 271 273 273 276 281 285 286 286 285 287 289 292 295 297 300 303 306 309 311 313 314 314 312 313
244 246 247 249 247 247 248 248 248 249 250 252 256 260 261 260 261 261 263 267 270 273 274 276 280 284 285 286 286 286 289 292 295 298 301 303 304 307 310 311 312 313 312 312
243 246 249 247 247 246 247 248 250 249 248 249 250 255 260 261 262 263 265 267 270 273 274 276 279 282 283 285 286 286 288 291 293 295 298 301 303 306 308 309 311 311 311 311
243 244 246 247 247 245 247 250 251 250 251 251 253 257 261 261 263 266 266 267 269 271 273 275 278 280 281 283 285 285 287 289 292 294 297 298 301 304 306 308 309 311 311 311
241 241 243 246 247 247 249 253 253 252 251 251 254 258 260 261 264 266 267 268 269 270 272 274 277 279 280 282 282 284 286 288 291 294 296 298 301 303 305 307 309 310 311 312
242 242 243 245 248 251 251 253 254 253 251 252 255 257 259 262 263 265 267 270 272 273 275 277 277 278 281 283 283 284 286 288 290 293 296 299 301 303 305 307 309 310 311 312
241 244 244 245 247 250 252 252 254 255 253 254 256 258 260 262 263 265 267 270 272 274 276 278 280 279 280 282 283 284 286 288 290 293 296 299 301 303 305 307 309 310 310 312
242 244 246 247 249 249 249 250 253 254 253 254 256 258 260 261 262 265 267 269 270 273 275 277 279 281 280 280 282 285 287 289 292 295 297 299 301 302 304 306 307 309 310 313
243 244 246 247 249 251 252 252 253 254 254 255 258 259 259 260 263 266 269 270 270 273 275 277 279 281 281 280 282 285 287 291 294 296 297 299 300 301 303 305 308 310 312 312
244 244 244 245 248 250 253 254 254 254 256 258 260 260 261 262 264 266 268 269 270 273 275 276 277 279 280 282 284 287 289 291 294 296 297 299 300 302 304 307 310 312 312 313
243 243 244 246 248 251 252 254 255 254 256 258 259 260 261 263 265 266 267 268 269 272 275 275 275 277 280 283 285 287 289 291 293 294 296 299 301 303 305 308 310 311 312 313
243 243 244 245 248 250 252 252 254 253 255 257 257 259 260 261 262 263 265 267 268 271 274 276 279 280 280 282 285 286 288 290 292 293 295 297 300 303 305 308 310 312 313 313
243 244 244 245 247 250 251 251 251 251 253 256 257 258 259 260 262 263 264 267 269 269 272 276 279 281 281 283 285 287 288 290 291 293 295 297 300 303 305 307 310 311 311 312
246 246 247 247 248 249 249 249 249 249 252 254 256 256 257 258 261 262 263 265 267 269 272 275 278 280 283 284 284 288 291 291 292 293 295 298 301 304 306 307 309 310 312 313
246 246 246 245 247 247 247 247 247 248 250 253 254 255 257 258 258 260 262 263 265 268 272 276 278 280 282 285 286 289 290 290 291 293 296 299 301 303 306 307 308 310 312 313
247 245 245 245 245 246 246 245 246 247 249 252 253 253 254 254 256 258 261 262 264 267 270 273 276 280 284 287 288 290 291 291 294 296 297 299 301 303 305 307 308 310 312 314
246 245 243 243 245 245 245 245 245 246 248 250 251 251 253 252 254 258 260 262 265 267 271 274 278 282 285 286 288 292 293 294 295 296 298 299 301 304 306 308 310 312 312 313
245 244 242 244 244 244 243 244 244 244 245 248 248 250 251 250 253 256 259 262 265 269 272 276 279 282 284 286 288 292 295 295 295 296 297 299 301 304 307 309 311 312 312 312
243 242 241 240 241 242 243 243 244 244 246 248 248 249 251 252 253 255 258 261 265 268 272 276 281 283 284 286 289 293 294 294 294 297 298 299 301 304 306 308 309 310 312 312
241 240 239 239 240 240 241 243 243 244 247 249 250 249 249 250 252 255 258 260 264 268 273 276 280 282 284 286 289 291 292 294 296 298 299 300 301 302 304 307 308 309 310 311
241 241 238 238 239 240 242 243 244 246 249 251 250 250 250 251 254 257 259 261 265 270 274 278 280 280 282 285 289 291 292 295 297 299 300 300 300 301 302 305 308 310 310 311
239 239 238 236 236 239 242 245 247 249 250 250 250 251 251 251 253 258 260 263 267 272 277 278 278 279 282 285 289 290 292 294 297 299 300 301 301 301 302 305 308 308 308 309
237 239 239 238 237 238 240 245 249 251 251 252 253 251 253 255 258 262 265 267 268 272 277 280 281 282 284 287 289 290 291 293 295 296 298 300 300 300 302 305 307 308 308 309
Height
5849 5850 5852 5853 5855 5856 5857 5859 5861 5861 5862 5861 5862 5861 5862 5861 5861 5860 5860 5859 5859 5858 5857 5856 5855 5854 5854 5853 5852 5851 5850 5849 5847 5845 5843 5840 5838 5835 5832 5830 5827 5824 5820 5817
5842 5844 5845 5847 5849 5850 5852 5853 5854 5855 5856 5856 5856 5856 5857 5857 5856 5856 5856 5855 5854 5853 5853 5852 5851 5851 5850 5849 5848 5847 5846 5845 5843 5841 5838 5836 5833 5831 5828 5825 5822 5819 5815 5812
5836 5838 5839 5841 5843 5844 5845 5846 5848 5849 5851 5851 5851 5851 5852 5851 5852 5851 5851 5851 5851 5849 5849 5848 5848 5847 5846 5845 5844 5843 5842 5840 5838 5836 5834 5831 5829 5826 5823 5820 5817 5814 5810 5807
5830 5832 5833 5837 5837 5838 5839 5840 5842 5843 5844 5845 5846 5846 5846 5846 5847 5847 5847 5847 5846 5846 5845 5844 5843 5843 5842 5841 5840 5838 5837 5835 5833 5831 5829 5826 5824 5821 5818 5815 5812 5808 5805 5801
5824 5825 5827 5829 5831 5832 5833 5835 5836 5837 5838 5840 5840 5841 5840 5841 5841 5841 5842 5842 5842 5841 5841 5840 5839 5838 5837 5836 5835 5833 5832 5830 5828 5826 5824 5822 5819 5816 5813 5810 5806 5803 5799 5796
5817 5819 5821 5823 5824 5826 5828 5829 5830 5831 5833 5834 5835 5836 5836 5836 5836 5836 5836 5837 5837 5837 5836 5835 5834 5833 5832 5831 5830 5828 5827 5825 5823 5821 5819 5816 5814 5811 5808 5804 5801 5797 5794 5790
5810 5812 5814 5816 5818 5820 5823 5824 5824 5825 5827 5828 5829 5830 5831 5831 5831 5831 5831 5831 5831 5831 5831 5830 5829 5828 5827 5826 5824 5823 5821 5820 5818 5816 5813 5811 5808 5805 5802 5799 5795 5791 5788 5784
5804 5807 5810 5809 5811 5814 5816 5817 5818 5819 5821 5822 5823 5824 5825 5825 5826 5826 5826 5826 5826 5825 5825 5824 5823 5822 5821 5820 5818 5817 5815 5814 5812 5810 5807 5805 5802 5799 5796 5792 5789 5785 5781 5777
5798 5801 5802 5803 5805 5807 5809 5810 5811 5813 5815 5816 5817 5818 5819 5819 5820 5820 5820 5820 5819 5819 5819 5818 5817 5816 5815 5813 5812 5811 5809 5807 5806 5804 5801 5799 5796 5793 5790 5786 5782 5779 5775 5770
5790 5792 5794 5796 5798 5800 5801 5803 5804 5806 5807 5809 5810 5811 5812 5813 5813 5813 5813 5813 5813 5813 5812 5811 5810 5809 5808 5806 5805 5804 5802 5801 5799 5797 5795 5792 5789 5786 5783 5779 5776 5772 5768 5764
5782 5785 5787 5789 5791 5793 5794 5796 5797 5799 5800 5802 5803 5804 5805 5806 5806 5807 5807 5807 5806 5806 5805 5805 5804 5803 5801 5800 5799 5797 5796 5794 5792 5790 5788 5786 5783 5780 5777 5773 5769 5766 5762 5757
5775 5778 5780 5782 5783 5785 5787 5788 5790 5791 5793 5794 5796 5797 5798 5799 5799 5799 5800 5800 5799 5799 5798 5798 5797 5795 5794 5793 5792 5791 5789 5787 5785 5783 5781 5779 5776 5773 5770 5767 5763 5759 5755 5751
5767 5769 5772 5774 5775 5777 5779 5781 5782 5783 5785 5787 5788 5789 5790 5791 5792 5792 5792 5792 5792 5792 5791 5791 5790 5789 5788 5787 5785 5784 5783 5781 5779 5777 5774 5772 5769 5766 5763 5760 5756 5752 5748 5744
5759 5761 5763 5766 5768 5769 5771 5773 5774 5776 5778 5779 5780 5781 5782 5783 5784 5785 5785 5785 5785 5785 5785 5784 5783 5782 5781 5780 5779 5777 5776 5774 5772 5770 5768 5765 5763 5760 5756 5752 5748 5745 5741 5737
5750 5752 5755 5758 5760 5762 5763 5765 5766 5768 5770 5772 5773 5774 5775 5776 5777 5777 5778 5778 5778 5778 5778 5777 5776 5775 5774 5773 5772 5770 5769 5767 5765 5763 5761 5758 5756 5753 5749 5746 5742 5738 5734 5730
5742 5744 5747 5749 5751 5753 5755 5757 5759 5761 5762 5764 5766 5767 5768 5769 5770 5771 5771 5771 5771 5771 5770 5770 5769 5768 5767 5766 5765 5763 5762 5760 5758 5756 5754 5751 5749 5746 5742 5739 5735 5731 5727 5723
5733 5736 5738 5741 5743 5745 5747 5749 5751 5753 5755 5757 5758 5759 5760 5761 5762 5763 5764 5764 5764 5764 5763 5763 5762 5761 5760 5759 5758 5756 5755 5753 5751 5749 5747 5744 5742 5739 5735 5732 5729 5725 5721 5717
5725 5727 5730 5732 5734 5736 5739 5741 5743 5745 5747 5749 5751 5752 5753 5754 5755 5756 5756 5757 5757 5757 5756 5756 5755 5755 5753 5752 5751 5749 5748 5746 5744 5742 5740 5737 5734 5731 5728 5725 5722 5718 5714 5710
5716 5719 5721 5723 5726 5728 5730 5733 5735 5737 5739 5741 5743 5744 5745 5746 5747 5748 5749 5749 5750 5750 5750 5749 5749 5748 5747 5746 5744 5742 5741 5739 5737 5735 5732 5730 5727 5724 5721 5718 5714 5711 5707 5703
5709 5711 5714 5716 5718 5721 5723 5725 5727 5730 5731 5733 5735 5736 5738 5739 5740 5741 5742 5742 5743 5743 5743 5742 5742 5741 5740 5739 5737 5736 5734 5732 5729 5727 5725 5723 5720 5717 5714 5711 5708 5704 5700 5697
5702 5704 5707 5709 5711 5714 5716 5718 5720 5722 5724 5725 5727 5729 5730 5731 5733 5734 5735 5736 5736 5736 5736 5735 5735 5734 5733 5731 5730 5728 5726 5724 5722 5720 5718 5716 5713 5711 5708 5705 5701 5698 5694 5691
5696 5698 5701 5703 5705 5707 5709 5711 5713 5715 5717 5718 5720 5721 5723 5724 5726 5727 5728 5729 5729 5729 5729 5728 5728 5727 5726 5724 5723 5721 5720 5718 5716 5714 5712 5709 5707 5704 5701 5698 5695 5691 5688 5684
5691 5693 5695 5697 5700 5702 5703 5705 5707 5709 5710 5712 5713 5715 5716 5718 5719 5720 5722 5722 5722 5722 5722 5722 5721 5720 5719 5717 5716 5715 5713 5711 5710 5707 5705 5703 5700 5698 5695 5692 5688 5685 5681 5678
5686 5688 5690 5692 5694 5696 5698 5700 5701 5703 5704 5705 5707 5708 5710 5711 5712 5713 5714 5715 5716 5716 5715 5715 5714 5713 5712 5711 5709 5708 5706 5705 5703 5701 5698 5696 5694 5691 5688 5685 5682 5678 5675 5671
5682 5683 5685 5687 5689 5691 5693 5694 5696 5697 5698 5699 5701 5702 5704 5705 5706 5707 5708 5709 5709 5709 5709 5708 5707 5706 5705 5704 5702 5701 5700 5698 5696 5694 5692 5689 5687 5684 5681 5678 5675 5672 5669 5665
5677 5679 5681 5683 5684 5686 5688 5689 5690 5691 5692 5693 5695 5696 5698 5699 5700 5701 5702 5702 5702 5702 5702 5701 5700 5699 5698 5697 5695 5694 5693 5691 5689 5687 5685 5682 5680 5677 5674 5672 5669 5666 5662 5658
5673 5675 5677 5678 5680 5681 5682 5684 5685 5686 5687 5688 5689 5690 5692 5693 5694 5694 5694 5695 5695 5695 5694 5694 5693 5691 5691 5689 5688 5687 5686 5684 5682 5680 5678 5676 5673 5671 5668 5665 5662 5659 5656 5652